JCSAT 2B

Last updated on March 31, 2020, 4:58 a.m. UTC

1 41471U 16028A   20090.73566517 -.00000167  00000-0  00000-0 0  9990
2 41471   0.0177 180.7481 0002019 180.8415 245.8142  1.00270820 14351
UTC
Height (km)
Latitude
Longitude
Inclination
Orbital Period
UTC large
Height (km)
Speed (km/s)
/
Latitude / Longitude
Inclination (degrees)
Orbital Period (minutes)
Azimuth
Elevation
Range (km)
Doppler Factor
iOS Compass Heading
iOS Angle

Next 30 passes for location: Hong Kong

Rise time Rise Azimuth (degrees) Set time Set Azimuth (degrees) Duration Max altitude (degrees)

No matching passes for this satellites